Location: Brienzwiler
(46.7508°N, 8.1014°E)
Time: 16:45:03
(UTC+00:00)

Cosmos 1408 Rocket - Pass Details

Date: 05 July 2020
Orbit: 601 x 630 km, 82.6° (Epoch: 10 August)

Event Time Altitude Azimuth Distance (km) Brightness Sun altitude
Exits shadow 23:35:56 47° 222° (SW) 815 3.8 -20.6°
Maximum altitude 23:36:59 65° 281° (W) 681 3.7 -20.6°
Drops below altitude 10° 23:41:24 10° 4° (N) 1,999 7.4 -20.6°
Sets 23:43:40 0° 7° (N) 2,915 8.6 -20.5°
